Regional Weather Roundup
Issued by NWS

Home | Current Version | Previous Version | Graphics & Text | Print | Product List | Glossary On
Versions: 1 2 3 4 5 6 7 8 9 10 11 12 13 14 15 16 17 18 19 20 21 22 23 24 25 26 27 28 29 30 31 32 33 34 35 36 37 38 39 40 41 42 43 44 45 46 47 48 49 50
000
ASUS43 KLMK 220502
RWRKY
KENTUCKY REGIONAL WEATHER ROUNDUP
NATIONAL WEATHER SERVICE LOUISVILLE KY
100 AM EDT FRI MAY 22 2015

NOTE "FAIR" INDICATES FEW OR NO CLOUDS BELOW 12,000 FEET
WITH NO SIGNIFICANT WEATHER AND/OR OBSTRUCTIONS TO VISIBILITY.

KYZ001>023-026-027-061>063-070>075-220600-
WESTERN AND SOUTH CENTRAL KENTUCKY

CITY           SKY/WX    TMP DP  RH WIND       PRES   REMARKS
PADUCAH        CLEAR     46  44  93 SW5       30.22R
HENDERSON      CLEAR     46  43  87 SW5       30.19S
OWENSBORO      CLEAR     47  46  96 CALM      30.20F
HOPKINSVILLE   CLEAR     47  46  93 SW2       30.21S
BOWLING GREEN  CLEAR     46  42  86 CALM      30.21S
GLASGOW        NOT AVBL
$$

KYZ024-025-028>034-038-045-046-053-220600-
NORTH CENTRAL KENTUCKY

CITY           SKY/WX    TMP DP  RH WIND       PRES   REMARKS
LOUISVILLE/SDF CLEAR     51  44  77 SW8       30.17S
LOUISVILLE/LOU CLEAR     48  43  82 CALM      30.18S
FORT KNOX      CLEAR     44  42  93 SW2       30.17S
$$

KYZ035>037-039>044-047>052-055>060-089>105-220600-
NORTHEAST KENTUCKY

CITY           SKY/WX    TMP DP  RH WIND       PRES   REMARKS
LEXINGTON      CLEAR     44  42  93 SW5       30.17S
COVINGTON      CLEAR     47  41  80 SW5       30.14S
FRANKFORT      CLEAR     45  41  86 SW5       30.16S
$$

KYZ054-064>069-076>088-106>120-220600-
SOUTHEAST KENTUCKY

CITY           SKY/WX    TMP DP  RH WIND       PRES   REMARKS
JACKSON        CLEAR     47  45  93 W3        30.17R
LONDON         CLEAR     50  44  80 W3        30.18R
SOMERSET       NOT AVBL
MIDDLESBORO    CLOUDY    51  47  86 CALM      30.18S
MONTICELLO     CLEAR     47  47 100 CALM      30.22S
$$



USA.gov is the U.S. government's official web portal to all federal, state and local government web resources and services.